User: anonymous
Location: NJAA Observatory
(40.6819°N, 74.8979°W)
Time: 21:34:04
(UTC-04:00)
Language:

Cosmos 2237 Rocket - Orbit

View from above orbital plane
View from above orbital plane
View from above satellite
View from above satellite

Ground track
Ground track

The orbit data is extracted from the following two-line orbital elements,

1 22566U 93016B   14205.09674289 -.00000180  00000-0 -68292-4 0  1070
2 22566 071.0097 129.8593 0012590 300.3643 059.6234 14.14850886101466
Epoch (UTC): 24 July 2014 02:19:18
Eccentricity: 0.0012590
inclination: 71.0097°
perigee height: 834 km
apogee height: 852 km
right ascension of ascending node: 129.8593°
argument of perigee: 300.3643°
revolutions per day: 14.14850886
mean anomaly at epoch: 59.6234°
orbit number at epoch: 10146

The dashed part of the orbit path shows where the satellite is in the earth's shadow,  

DLR